Location: ??????
(41.3747°N, 22.5491°E)
Time: 06:16:12
(UTC+00:00)

Cosmos 1238 Rocket - Pass Details

Date: 01 December 2020
Orbit: 376 x 1024 km, 83.0° (Epoch: 20 January)

Event Time Altitude Azimuth Distance (km) Brightness Sun altitude
Rises 17:20:17 0° 348° (NNW) 2,695 6.4 -25.5°
Reaches altitude 10° 17:22:17 10° 344° (NNW) 1,888 5.6 -25.9°
Maximum altitude 17:26:23 60° 265° (W) 754 3.6 -26.6°
Drops below altitude 10° 17:31:22 10° 186° (S) 2,279 6.1 -27.6°
Sets 17:33:58 0° 183° (S) 3,312 6.9 -28.1°
